Regional Weather Roundup
Issued by NWS

Home | Current Version | Previous Version | Text Only | Print | Product List | Glossary Off
Versions: 1 2 3 4 5 6 7 8 9 10 11 12 13 14 15 16 17 18 19 20 21 22 23 24 25 26 27 28 29 30 31 32 33 34 35 36 37 38 39 40 41 42 43 44 45 46 47 48 49 50

000
ASUS43 KLMK 251110
RWRKY
KENTUCKY REGIONAL WEATHER ROUNDUP
NATIONAL WEATHER SERVICE LOUISVILLE KY
700 AM EDT MON SEP 25 2017

NOTE "FAIR" INDICATES FEW OR NO CLOUDS BELOW 12,000 FEET
WITH NO SIGNIFICANT WEATHER AND/OR OBSTRUCTIONS TO VISIBILITY.

KYZ001>023-026-027-061>063-070>075-251200-
WESTERN AND SOUTH CENTRAL KENTUCKY

CITY           SKY/WX    TMP DP  RH WIND       PRES   REMARKS
PADUCAH        CLEAR     63  61  93 CALM      30.01R
HENDERSON      PTCLDY    65  64  97 CALM      30.02R
OWENSBORO      CLEAR     68  66  93 CALM      30.02R
HOPKINSVILLE   CLEAR     67  67 100 CALM      30.02R
BOWLING GREEN  FOG       66  66 100 CALM      30.03S VSB 1/4
GLASGOW        FOG      N/A N/A N/A CALM      30.03S VSB 1/4
$$

KYZ024-025-028>034-038-045-046-053-251200-
NORTH CENTRAL KENTUCKY

CITY           SKY/WX    TMP DP  RH WIND       PRES   REMARKS
LOUISVILLE/SDF PTCLDY    68  63  84 CALM      30.03R
LOUISVILLE/LOU CLEAR     65  64  97 CALM      30.04R
FORT KNOX      CLEAR     63  63 100 CALM      30.03R
$$

KYZ035>037-039>044-047>052-055>060-089>105-251200-
NORTHEAST KENTUCKY

CITY           SKY/WX    TMP DP  RH WIND       PRES   REMARKS
LEXINGTON      CLEAR     65  59  81 CALM      30.06R
COVINGTON      PTCLDY    65  60  84 CALM      30.05R
FRANKFORT      CLEAR     61  58  90 CALM      30.04R
$$

KYZ054-064>069-076>088-106>120-251200-
SOUTHEAST KENTUCKY

CITY           SKY/WX    TMP DP  RH WIND       PRES   REMARKS
JACKSON        PTCLDY    66  60  81 SE3       30.07R
LONDON         PTCLDY    62  60  93 CALM      30.06R
SOMERSET       PTCLDY    61  61 100 CALM      30.07S FOG
MIDDLESBORO    FOG       59  59 100 CALM      30.09R VSB 1/2
MONTICELLO     FOG       62  62 100 CALM      30.07S VSB 1/2
$$





USA.gov is the U.S. government's official web portal to all federal, state and local government web resources and services.